Terug naar catalogus

STARLINK-3147

ActiefCommunicatieVLEO
NORAD 49410·PAYLOAD·🇺🇸 United States

Gelanceerd Nov 13, 2021 vanaf Cape Canaveral Space Force Station

Loading…

Volgende Passages (komende 24 uur)

TLE

VersSource: CelesTrak SupGP

Epoch: Sep 15, 2026, 01:29 UTC

1 49410C 21104C   26258.06229167  .00009006  00000+0  28957-3 0  2588
2 49410  53.1574  86.1345 0001128  81.4455 239.2378 15.31703016    13

Volg STARLINK-3147 in realtime met AllMySat

Download on the App Store